Date,TemperatureHighF,TemperatureAvgF,TemperatureLowF,DewpointHighF,DewpointAvgF,DewpointLowF,HumidityHigh,HumidityAvg,HumidityLow,PressureMaxIn,PressureMinIn,WindSpeedMaxMPH,WindSpeedAvgMPH,GustSpeedMaxMPH,PrecipitationSumIn
2013-1-1,23,13,2,-100,-100,-100,0,0,100,30.11,29.94,13,7,77,0.00
2013-1-2,19,17,15,-100,-100,-100,0,0,100,30.13,29.92,10,6,16,0.00
2013-1-3,27,21,16,-100,-100,-100,0,0,100,30.08,29.87,20,7,27,0.00
2013-1-4,33,29,23,-100,-100,-100,0,0,100,30.04,29.76,19,-84,32,0.00
2013-1-5,33,27,22,-100,-100,-100,0,0,100,30.21,29.87,17,-140,23,0.00
2013-1-6,26,24,18,-100,-100,-100,0,0,100,30.23,29.81,11,4,15,0.00
2013-1-7,39,34,18,-100,-100,-100,0,0,100,30.25,29.85,18,-534,42,0.00
2013-1-8,42,35,30,-100,-100,-100,0,0,100,30.13,29.89,11,-675,23,0.00
2013-1-9,39,35,33,-100,-100,-100,0,0,100,30.35,29.76,21,-731,30,0.00
2013-1-10,39,35,29,-100,-100,-100,0,0,100,30.52,30.17,19,-669,26,0.00
2013-1-11,38,37,35,-100,-100,-100,0,0,100,30.19,29.68,19,-740,26,0.00
2013-1-12,48,39,32,-100,-100,-100,0,0,100,29.94,29.62,21,-729,30,0.00
2013-1-13,33,31,29,-100,-100,-100,0,0,100,29.94,29.85,15,-321,18,0.00
2013-1-14,25,22,18,-100,-100,-100,0,0,100,30.31,30.15,14,7,18,0.00
2013-1-15,27,20,10,-100,-100,-100,0,0,100,30.33,30.04,14,8,22,0.00
2013-1-16,29,26,17,-100,-100,-100,0,0,100,30.02,29.56,24,12,35,0.00
2013-1-17,15,8,-2,-100,-100,-100,0,0,100,30.26,29.95,19,9,23,0.00
2013-1-18,23,13,5,-100,-100,-100,0,0,100,30.27,29.75,13,6,21,0.00
2013-1-19,28,22,18,-100,-100,-100,0,0,100,29.83,29.37,17,5,24,0.00
2013-1-20,27,9,3,-100,-100,-100,0,0,100,30.09,29.38,30,12,40,0.00
2013-1-21,7,2,-3,-100,-100,-100,0,0,100,30.07,29.86,9,5,12,0.00
2013-1-22,-2,-10,-18,-100,-100,-100,0,0,100,30.21,30.01,9,4,11,0.00
2013-1-23,12,-2,-15,-100,-100,-100,0,0,100,30.24,30.02,10,4,103,0.00
2013-1-24,8,-4,-17,-100,-100,-100,0,0,100,30.62,30.31,9,-26,13,0.00
2013-1-25,17,11,-1,-100,-100,-100,0,0,100,30.43,30.00,8,5,12,0.00
2013-1-26,23,12,1,-100,-100,-100,0,0,100,30.40,30.05,7,3,7,0.00
2013-1-27,29,20,6,-100,-100,-100,0,0,100,30.41,30.14,10,6,15,0.00
2013-1-28,32,30,28,-100,-100,-100,0,0,100,30.13,29.85,11,-60,18,0.00
2013-1-29,35,32,26,-100,-100,-100,0,0,100,30.00,29.49,12,-585,22,0.00
2013-1-30,34,32,14,-100,-100,-100,0,0,100,29.50,29.16,17,-580,24,0.00
2013-1-31,13,8,4,-100,-100,-100,0,0,100,29.81,29.18,18,12,24,0.00
2013-2-1,14,6,-1,-100,-100,-100,0,0,100,30.08,29.83,9,4,13,0.00
2013-2-2,12,6,-1,-100,-100,-100,0,0,100,30.04,30.00,18,6,21,0.00
2013-2-3,18,9,-2,-100,-100,-100,0,0,100,29.99,29.75,15,6,23,0.00
2013-2-4,14,2,-16,-100,-100,-100,0,0,100,30.00,29.89,7,4,77,0.00
2013-2-5,20,11,1,-100,-100,-100,0,0,100,29.91,29.68,20,7,28,0.00
2013-2-6,11,4,-10,-100,-100,-100,0,0,100,30.28,29.94,13,4,78,0.00
2013-2-7,17,13,10,-100,-100,-100,0,0,100,30.29,30.20,14,7,19,0.00
2013-2-8,19,12,-4,-100,-100,-100,0,0,100,30.41,30.19,12,7,16,0.00
2013-2-9,22,3,-17,-100,-100,-100,0,0,100,30.45,30.22,10,4,77,0.00
2013-2-10,34,25,6,-100,-100,-100,0,0,100,30.22,29.63,17,-207,25,0.00
2013-2-11,37,34,27,-100,-100,-100,0,0,100,29.67,29.35,27,-630,35,0.00
2013-2-12,28,25,18,-100,-100,-100,0,0,100,29.91,29.70,17,9,28,0.00
2013-2-13,36,30,19,-100,-100,-100,0,0,100,29.83,29.65,11,-362,16,0.00
2013-2-14,35,31,26,-100,-100,-100,0,0,100,29.78,29.63,21,-409,31,0.00
2013-2-15,25,15,10,-100,-100,-100,0,0,100,30.10,29.78,17,10,21,0.00
2013-2-16,12,5,-7,-100,-100,-100,0,0,100,30.15,30.08,14,6,20,0.00
2013-2-17,20,3,-13,-100,-100,-100,0,0,100,30.21,30.12,8,4,77,0.00
2013-2-18,32,20,6,-100,-100,-100,0,0,100,30.11,29.54,24,12,36,0.00
2013-2-19,35,30,8,-100,-100,-100,0,0,100,29.78,29.16,28,-557,41,0.00
2013-2-20,11,6,2,-100,-100,-100,0,0,100,30.30,29.80,23,-12,87,0.00
2013-2-21,17,8,2,-100,-100,-100,0,0,100,30.46,30.32,11,7,14,0.00
2013-2-22,28,17,4,-100,-100,-100,0,0,100,30.40,29.85,14,10,27,0.00
2013-2-23,32,28,21,-100,-100,-100,0,0,100,29.85,29.77,11,-23,20,0.00
2013-2-24,32,23,7,-100,-100,-100,0,0,100,30.12,29.84,17,7,21,0.00
2013-2-25,32,27,19,-100,-100,-100,0,0,100,30.20,30.12,6,4,8,0.00
2013-2-26,33,28,28,-100,-100,-100,0,0,100,30.20,29.93,15,-91,24,0.00
2013-2-27,36,34,29,-100,-100,-100,0,0,100,29.91,29.73,14,-615,22,0.00
2013-2-28,35,30,18,-100,-100,-100,0,0,100,30.13,29.76,17,-354,25,0.00
2013-3-1,28,18,11,-100,-100,-100,0,0,100,30.24,30.13,13,9,19,0.00
2013-3-2,20,13,8,-100,-100,-100,0,0,100,30.23,30.11,19,10,25,0.00
2013-3-3,20,11,-1,-100,-100,-100,0,0,100,30.12,30.05,17,6,22,0.00
2013-3-4,24,12,-3,-100,-100,-100,0,0,100,30.17,30.09,13,6,17,0.00
2013-3-5,33,19,1,-100,-100,-100,0,0,100,30.19,30.07,10,-48,15,0.00
2013-3-6,40,33,27,-100,-100,-100,0,0,100,30.24,30.14,14,-451,19,0.00
2013-3-7,30,27,24,-100,-100,-100,0,0,100,30.42,30.24,20,12,25,0.00
2013-3-8,41,34,16,-100,-100,-100,0,0,100,30.50,30.39,10,-491,13,0.00
2013-3-9,38,33,17,-100,-100,-100,0,0,100,30.38,30.03,19,-589,26,0.00
2013-3-10,33,31,32,-100,-100,-100,0,0,100,30.03,29.95,13,-820,21,0.00
2013-11-3,33,1,29,-100,-100,-100,0,0,100,30.35,30.20,13,-5,18,0.00
2013-11-4,44,2,39,-100,-100,-100,0,0,100,30.39,30.15,28,-2,39,0.00
2013-11-5,52,0,52,-100,-100,-100,0,0,100,30.18,30.18,15,-2,20,0.00
2013-11-6,45,3,39,-100,-100,-100,0,0,100,29.78,29.60,21,-57,25,0.00
2013-11-7,36,6,33,-100,-100,-100,0,0,100,29.97,29.91,15,-172,20,0.00
2013-11-8,33,1,32,-100,-100,-100,0,0,100,30.13,30.01,9,-10,12,0.00
2013-11-9,41,7,34,-100,-100,-100,0,0,100,30.01,29.54,16,-166,24,0.00
2013-11-10,36,1,36,-100,-100,-100,0,0,100,29.80,29.80,24,-8,32,0.00
2013-11-11,24,1,24,-100,-100,-100,0,0,100,30.19,29.88,29,16,39,0.00
2013-11-12,-200,0,200,-100,-100,-100,0,0,100,0.00,40.00,22,12,27,0.00
2013-11-13,27,0,26,-100,-100,-100,0,0,100,30.30,30.25,20,10,34,0.00
2013-11-14,40,0,40,-100,-100,-100,0,0,100,29.78,29.78,15,7,25,0.00
2013-11-15,48,2,38,-100,-100,-100,0,0,100,29.89,29.78,10,-26,16,0.00
2013-11-16,47,4,34,-100,-100,-100,0,0,100,29.90,29.53,16,-88,22,0.00
2013-11-17,54,5,50,-100,-100,-100,0,0,100,29.48,28.95,14,-94,30,0.00
2013-11-18,45,20,35,-100,-100,-100,0,0,100,29.29,29.02,24,-490,33,0.00
2013-11-23,26,7,12,-100,-100,-100,0,0,100,30.42,30.14,28,-19,35,0.00
2013-11-24,23,4,7,-100,-100,-100,0,0,100,30.48,30.10,13,-27,21,0.00
2013-11-25,32,7,26,-100,-100,-100,0,0,100,30.07,29.72,14,-23,20,0.00
2013-11-26,33,8,23,-100,-100,-100,0,0,100,29.97,29.82,15,-30,19,0.00
2013-11-27,21,3,16,-100,-100,-100,0,0,100,30.12,29.93,20,12,32,0.00
2013-11-28,17,2,10,-100,-100,-100,0,0,100,30.38,30.14,8,4,11,0.00
2013-11-29,29,2,12,-100,-100,-100,0,0,100,30.58,30.43,9,-19,15,0.00
2013-11-30,31,0,31,-100,-100,-100,0,0,100,30.40,29.99,17,8,23,0.00
2013-12-1,29,0,29,-100,-100,-100,0,0,100,30.07,30.01,7,3,10,0.00
2013-12-2,-200,0,200,-100,-100,-100,0,0,100,29.95,29.90,8,3,10,0.00
2013-12-3,23,0,23,-100,-100,-100,0,0,100,29.99,29.94,11,5,17,0.00
2013-12-4,34,1,28,-100,-100,-100,0,0,100,29.98,29.46,20,-2,32,0.00
2013-12-5,42,1,40,-100,-100,-100,0,0,100,29.94,29.37,20,1,32,0.00
2013-12-6,-200,0,200,-100,-100,-100,0,0,100,30.23,30.03,17,11,23,0.00
2013-12-7,-200,0,200,-100,-100,-100,0,0,100,30.43,30.28,17,10,24,0.00
2013-12-8,-200,0,200,-100,-100,-100,0,0,100,30.44,30.23,13,5,19,0.00
2013-12-9,25,0,25,-100,-100,-100,0,0,100,30.04,29.65,17,8,27,0.00
2013-12-10,-200,0,200,-100,-100,-100,0,0,100,29.87,29.72,17,6,27,0.00
2013-12-11,-200,0,200,-100,-100,-100,0,0,100,30.20,29.92,17,10,23,0.00
2013-12-12,13,0,13,-100,-100,-100,0,0,100,30.18,29.91,18,11,26,0.00
2013-12-13,-200,0,200,-100,-100,-100,0,0,100,30.39,29.91,18,6,129,0.00
2013-12-14,7,0,7,-100,-100,-100,0,0,100,30.40,29.99,10,6,77,0.00
2013-12-15,5,0,5,-100,-100,-100,0,0,100,29.80,29.69,9,5,12,0.00
2013-12-16,8,0,8,-100,-100,-100,0,0,100,30.06,29.96,7,4,85,0.00
2013-12-17,-200,0,200,-100,-100,-100,0,0,100,29.87,29.75,10,4,15,0.00
2013-12-18,-200,0,200,-100,-100,-100,0,0,100,29.92,29.74,14,8,20,0.00
2013-12-19,27,0,27,-100,-100,-100,0,0,100,30.00,29.72,19,8,26,0.00
2013-12-20,-200,0,200,-100,-100,-100,0,0,100,30.02,29.90,8,4,13,0.00
2013-12-21,-200,0,200,-100,-100,-100,0,0,100,29.98,29.84,10,4,15,0.00
2013-12-22,-200,0,200,-100,-100,-100,0,0,100,30.04,29.85,15,9,22,0.00
2013-12-23,-200,0,200,-100,-100,-100,0,0,100,30.33,30.04,9,4,81,0.00
2013-12-24,-200,0,200,-100,-100,-100,0,0,100,30.44,30.33,7,3,78,0.00
2013-12-25,19,0,18,-100,-100,-100,0,0,100,30.32,29.96,17,7,26,0.00
2013-12-26,13,0,13,-100,-100,-100,0,0,100,30.12,29.94,12,5,18,0.00
2013-12-27,29,0,3,-100,-100,-100,0,0,100,30.14,29.78,12,6,18,0.00
2013-12-28,33,1,33,-100,-100,-100,0,0,100,29.89,29.79,11,-13,18,0.00
2013-12-29,-200,0,200,-100,-100,-100,0,0,100,30.00,29.73,15,10,105,0.00
2013-12-30,-200,0,200,-100,-100,-100,0,0,100,30.17,30.00,7,4,78,0.00
2013-12-31,-200,0,200,-100,-100,-100,0,0,100,30.14,29.90,18,7,32,0.00
2014-1-1,-10,0,-10,-100,-100,-100,0,0,100,30.43,30.21,11,5,78,0.00
2014-1-2,-200,0,200,-100,-100,-100,0,0,100,30.38,30.28,5,2,78,0.00